QPF
0.06 0.05 0.05 0.05 0.04 0.04 0.04 0.03 0.01 0.00 0.00 0.00 0.00 0.00 0.00 0.00 0.00 0.00 0.00 0.00 0.00 0.00 0.00 0.00 0.00 0.00 0.00 0.00 0.00 0.00 0.00 0.00 0.00 0.00 0.00 0.00 0.00 0.00
0.06 0.05 0.06 0.05 0.04 0.04 0.03 0.03 0.02 0.01 0.00 0.00 0.00 0.00 0.00 0.00 0.00 0.00 0.00 0.00 0.00 0.00 0.00 0.00 0.00 0.00 0.00 0.00 0.00 0.00 0.00 0.00 0.00 0.00 0.00 0.00 0.00 0.00
0.04 0.03 0.03 0.04 0.05 0.05 0.05 0.04 0.03 0.03 0.02 0.01 0.00 0.00 0.00 0.00 0.00 0.00 0.00 0.00 0.00 0.00 0.00 0.00 0.00 0.00 0.00 0.00 0.00 0.00 0.00 0.00 0.00 0.00 0.00 0.00 0.00 0.00
0.05 0.04 0.04 0.06 0.05 0.05 0.05 0.04 0.03 0.03 0.02 0.01 0.00 0.00 0.00 0.00 0.00 0.00 0.00 0.00 0.00 0.00 0.00 0.00 0.00 0.00 0.00 0.00 0.00 0.00 0.00 0.00 0.00 0.00 0.00 0.00 0.00 0.00
0.06 0.07 0.04 0.05 0.05 0.04 0.04 0.03 0.02 0.02 0.01 0.00 0.00 0.00 0.00 0.00 0.00 0.00 0.00 0.00 0.00 0.00 0.00 0.00 0.00 0.00 0.00 0.00 0.00 0.00 0.00 0.00 0.00 0.00 0.00 0.00 0.00 0.00
0.04 0.04 0.04 0.06 0.07 0.05 0.04 0.03 0.04 0.02 0.01 0.00 0.00 0.00 0.00 0.00 0.00 0.00 0.00 0.00 0.00 0.00 0.00 0.00 0.00 0.00 0.00 0.00 0.00 0.00 0.00 0.00 0.00 0.00 0.00 0.00 0.00 0.00
0.09 0.12 0.11 0.10 0.13 0.12 0.06 0.03 0.02 0.01 0.01 0.00 0.00 0.00 0.00 0.00 0.00 0.00 0.00 0.00 0.00 0.00 0.00 0.00 0.00 0.00 0.00 0.00 0.00 0.00 0.00 0.00 0.00 0.00 0.00 0.00 0.00 0.00
0.04 0.07 0.10 0.09 0.06 0.04 0.01 0.01 0.01 0.01 0.01 0.00 0.00 0.00 0.00 0.00 0.00 0.00 0.00 0.00 0.00 0.00 0.00 0.00 0.00 0.00 0.00 0.00 0.00 0.00 0.00 0.00 0.00 0.00 0.00 0.00 0.00 0.00
0.07 0.04 0.02 0.01 0.01 0.01 0.01 0.01 0.01 0.00 0.00 0.00 0.00 0.00 0.00 0.00 0.00 0.00 0.00 0.00 0.00 0.00 0.00 0.00 0.00 0.00 0.00 0.00 0.00 0.00 0.00 0.00 0.00 0.00 0.00 0.00 0.00 0.00
0.01 0.01 0.00 0.00 0.00 0.00 0.00 0.00 0.00 0.00 0.00 0.00 0.00 0.00 0.00 0.00 0.00 0.00 0.00 0.00 0.00 0.00 0.00 0.00 0.00 0.00 0.00 0.00 0.00 0.00 0.00 0.00 0.00 0.00 0.00 0.00 0.00 0.00
0.00 0.00 0.00 0.00 0.00 0.00 0.00 0.00 0.00 0.00 0.00 0.00 0.00 0.00 0.00 0.00 0.00 0.00 0.00 0.00 0.00 0.00 0.00 0.00 0.00 0.00 0.00 0.00 0.00 0.00 0.00 0.00 0.00 0.00 0.00 0.00 0.00 0.00
0.00 0.00 0.00 0.00 0.00 0.00 0.00 0.00 0.00 0.00 0.00 0.00 0.00 0.00 0.00 0.00 0.00 0.00 0.00 0.00 0.00 0.00 0.00 0.00 0.00 0.00 0.00 0.00 0.00 0.00 0.00 0.00 0.00 0.01 0.01 0.01 0.00 0.00
0.00 0.00 0.00 0.00 0.00 0.00 0.00 0.00 0.00 0.00 0.00 0.00 0.00 0.00 0.00 0.00 0.00 0.00 0.00 0.00 0.00 0.00 0.00 0.00 0.00 0.00 0.00 0.00 0.00 0.00 0.00 0.00 0.00 0.00 0.00 0.01 0.01 0.00
0.00 0.00 0.00 0.00 0.00 0.00 0.00 0.00 0.00 0.00 0.00 0.00 0.00 0.00 0.00 0.00 0.00 0.00 0.00 0.00 0.00 0.00 0.00 0.00 0.00 0.00 0.00 0.00 0.00 0.00 0.00 0.00 0.00 0.00 0.00 0.00 0.01 0.01
0.00 0.00 0.00 0.00 0.00 0.00 0.00 0.00 0.00 0.00 0.00 0.00 0.00 0.00 0.00 0.00 0.00 0.00 0.00 0.00 0.00 0.00 0.00 0.00 0.00 0.00 0.00 0.00 0.00 0.00 0.00 0.00 0.00 0.00 0.00 0.00 0.00 0.01
0.00 0.00 0.00 0.00 0.00 0.00 0.00 0.00 0.00 0.00 0.00 0.00 0.00 0.00 0.00 0.00 0.00 0.00 0.00 0.00 0.00 0.00 0.00 0.00 0.00 0.00 0.00 0.00 0.00 0.00 0.00 0.00 0.00 0.00 0.00 0.00 0.00 0.00
0.00 0.00 0.00 0.00 0.00 0.00 0.00 0.00 0.00 0.00 0.00 0.00 0.00 0.00 0.00 0.00 0.00 0.00 0.00 0.00 0.00 0.00 0.00 0.00 0.00 0.00 0.00 0.00 0.00 0.00 0.00 0.00 0.00 0.00 0.00 0.00 0.00 0.00
0.00 0.00 0.00 0.00 0.00 0.00 0.00 0.00 0.00 0.00 0.00 0.00 0.00 0.00 0.00 0.00 0.00 0.00 0.00 0.00 0.00 0.00 0.00 0.00 0.00 0.00 0.00 0.00 0.00 0.00 0.00 0.00 0.00 0.00 0.00 0.00 0.00 0.00
0.00 0.00 0.00 0.00 0.00 0.00 0.00 0.00 0.00 0.00 0.00 0.00 0.00 0.00 0.00 0.00 0.00 0.00 0.00 0.00 0.00 0.00 0.00 0.00 0.00 0.00 0.00 0.00 0.00 0.00 0.00 0.00 0.00 0.00 0.00 0.00 0.00 0.00
0.00 0.00 0.00 0.00 0.00 0.00 0.00 0.00 0.00 0.00 0.00 0.00 0.00 0.00 0.00 0.00 0.00 0.00 0.00 0.00 0.00 0.00 0.00 0.00 0.00 0.00 0.00 0.00 0.00 0.00 0.00 0.00 0.00 0.00 0.00 0.00 0.00 0.00
0.00 0.00 0.00 0.00 0.00 0.00 0.00 0.00 0.00 0.00 0.00 0.00 0.00 0.00 0.00 0.00 0.00 0.00 0.00 0.00 0.00 0.00 0.00 0.00 0.00 0.00 0.00 0.00 0.00 0.00 0.00 0.00 0.00 0.00 0.00 0.00 0.00 0.00
0.00 0.00 0.00 0.00 0.00 0.00 0.00 0.00 0.00 0.00 0.00 0.00 0.00 0.00 0.00 0.00 0.00 0.00 0.00 0.00 0.00 0.00 0.00 0.00 0.00 0.00 0.00 0.00 0.00 0.00 0.00 0.00 0.00 0.00 0.00 0.00 0.00 0.00
0.00 0.00 0.00 0.00 0.00 0.00 0.00 0.00 0.00 0.00 0.00 0.00 0.00 0.00 0.00 0.00 0.00 0.00 0.00 0.00 0.00 0.00 0.00 0.00 0.00 0.00 0.00 0.00 0.00 0.00 0.00 0.00 0.00 0.00 0.00 0.00 0.00 0.00
MSLP
1012.03 1012.41 1012.70 1012.73 1012.90 1013.40 1013.73 1013.98 1014.30 1014.83 1014.70 1014.35 1014.37 1014.09 1014.27 1014.52 1014.60 1014.84 1014.77 1014.63 1014.84 1014.86 1015.21 1015.33 1015.50 1015.55 1015.65 1015.64 1015.84 1015.84 1015.75 1016.00 1015.76 1016.05 1016.48 1016.42 1016.74 1016.84
1011.39 1011.79 1012.17 1012.36 1012.55 1012.85 1013.29 1013.40 1013.65 1013.78 1013.91 1013.80 1013.78 1013.85 1013.57 1013.69 1013.69 1013.85 1013.93 1014.13 1013.95 1014.41 1013.90 1013.82 1014.61 1014.84 1015.01 1015.16 1015.06 1015.33 1015.17 1014.99 1014.99 1015.16 1015.50 1015.79 1016.05 1016.22
1010.89 1011.29 1011.41 1011.60 1012.09 1012.53 1012.61 1012.80 1012.56 1013.09 1013.19 1013.11 1013.40 1013.15 1013.22 1012.94 1012.92 1012.84 1013.01 1013.42 1013.48 1013.68 1013.64 1013.63 1013.20 1013.67 1013.94 1014.14 1014.21 1014.30 1014.39 1014.41 1014.56 1014.18 1014.73 1014.78 1015.08 1015.53
1010.18 1010.40 1010.38 1011.03 1011.20 1011.53 1011.78 1011.77 1011.79 1012.19 1012.58 1012.55 1012.35 1012.39 1012.23 1012.08 1012.13 1012.36 1012.53 1012.53 1012.58 1012.67 1012.54 1012.74 1012.67 1012.86 1013.06 1013.42 1013.53 1013.44 1013.50 1013.58 1013.50 1013.71 1013.88 1014.14 1014.12 1014.55
1009.54 1009.80 1009.86 1010.15 1010.42 1010.41 1010.46 1010.94 1011.16 1011.40 1011.62 1011.83 1011.57 1011.57 1011.60 1011.75 1011.96 1011.88 1011.90 1011.84 1011.85 1011.88 1012.11 1012.28 1012.54 1012.54 1012.67 1012.93 1013.01 1012.97 1012.63 1012.74 1012.18 1012.59 1012.81 1013.27 1013.23 1013.58
1008.80 1008.89 1009.31 1009.65 1009.53 1009.69 1010.05 1010.19 1010.33 1010.61 1010.84 1011.16 1011.06 1011.15 1011.34 1011.62 1011.88 1011.94 1011.90 1011.80 1011.80 1011.53 1011.63 1011.34 1011.47 1011.51 1011.62 1011.95 1012.09 1012.30 1012.34 1012.53 1012.08 1012.15 1012.28 1012.27 1012.46 1012.65
1008.27 1008.32 1008.59 1008.95 1008.94 1008.95 1009.39 1009.65 1009.94 1010.34 1010.67 1010.85 1010.77 1010.87 1011.26 1011.83 1011.66 1011.40 1011.64 1011.47 1011.41 1011.39 1011.45 1011.36 1011.44 1011.49 1011.42 1011.33 1011.23 1011.31 1011.49 1011.39 1011.14 1011.23 1011.51 1011.43 1011.48 1011.71
1007.92 1008.05 1008.83 1008.96 1009.27 1009.40 1009.58 1009.85 1010.02 1009.90 1010.22 1010.49 1010.86 1010.77 1010.98 1011.20 1011.51 1011.37 1011.35 1011.56 1011.59 1010.85 1011.21 1010.91 1011.10 1011.12 1010.98 1010.79 1010.69 1010.84 1010.85 1010.82 1010.68 1010.55 1010.54 1010.70 1010.86 1011.03
1008.56 1008.80 1009.24 1009.46 1009.47 1009.94 1010.30 1010.75 1010.66 1010.85 1010.83 1010.94 1011.18 1011.70 1011.78 1011.89 1011.90 1011.67 1011.58 1011.47 1011.45 1011.20 1011.21 1010.88 1010.77 1010.63 1010.26 1010.21 1010.11 1010.14 1010.03 1009.88 1009.76 1009.74 1009.72 1009.89 1010.04 1009.96
1009.26 1009.61 1009.81 1009.90 1010.35 1010.32 1010.83 1010.77 1011.63 1011.40 1011.52 1011.61 1011.94 1012.18 1012.21 1012.22 1012.18 1011.97 1012.05 1011.98 1011.70 1011.51 1011.48 1011.26 1010.85 1010.44 1010.14 1009.95 1009.62 1009.39 1009.14 1009.02 1009.01 1008.94 1008.87 1008.90 1009.02 1009.13
1010.09 1010.10 1010.60 1010.85 1011.12 1010.98 1011.13 1011.32 1011.81 1012.07 1011.91 1012.10 1012.10 1012.27 1012.51 1012.52 1012.30 1012.22 1012.45 1012.35 1012.10 1011.88 1011.79 1011.63 1011.09 1010.80 1010.35 1009.60 1009.13 1009.01 1008.95 1008.81 1008.58 1008.43 1008.30 1008.11 1008.14 1008.24
1011.07 1011.40 1011.36 1011.53 1011.71 1011.58 1011.38 1011.59 1011.99 1012.33 1012.38 1012.59 1012.93 1013.00 1012.86 1012.86 1012.94 1013.04 1013.03 1012.98 1012.72 1012.14 1011.90 1011.99 1011.42 1011.33 1010.47 1009.40 1008.89 1008.84 1008.63 1008.38 1008.22 1007.90 1007.69 1007.59 1007.52 1007.53
1011.65 1011.94 1012.09 1012.18 1012.19 1012.19 1012.31 1012.60 1012.70 1012.93 1013.09 1013.22 1013.39 1013.44 1013.52 1013.58 1013.58 1013.45 1013.38 1013.33 1013.15 1012.76 1012.12 1012.11 1011.78 1011.44 1011.13 1009.95 1009.12 1008.96 1008.68 1008.02 1007.97 1007.78 1007.30 1006.88 1006.88 1006.77
1012.40 1012.89 1013.08 1013.23 1013.32 1013.28 1013.37 1013.48 1013.51 1013.63 1013.74 1013.79 1013.80 1013.89 1013.87 1013.83 1013.80 1013.73 1013.66 1013.49 1013.25 1012.99 1012.42 1012.27 1011.92 1011.53 1011.05 1010.45 1009.43 1008.98 1008.62 1008.13 1008.01 1007.84 1007.24 1006.80 1006.32 1005.93
1013.26 1013.48 1013.69 1013.74 1013.72 1013.70 1013.76 1013.81 1013.88 1013.87 1013.94 1014.01 1014.17 1014.29 1014.26 1014.01 1013.66 1013.41 1013.06 1012.89 1012.78 1012.48 1012.11 1011.95 1011.72 1011.35 1011.06 1010.43 1009.60 1008.96 1008.70 1008.00 1007.77 1007.58 1007.25 1006.81 1006.31 1005.90
1013.71 1013.89 1014.01 1014.07 1014.06 1014.20 1014.29 1014.34 1014.33 1014.36 1014.55 1014.49 1014.31 1014.16 1014.05 1013.85 1013.70 1013.43 1013.15 1012.66 1012.37 1012.01 1011.74 1011.55 1011.52 1011.34 1010.73 1010.25 1009.81 1008.81 1008.51 1008.26 1007.58 1007.15 1006.87 1006.25 1005.97 1005.84
1014.29 1014.58 1014.79 1014.89 1014.88 1014.84 1014.80 1014.63 1014.54 1014.62 1014.78 1014.82 1014.67 1014.67 1014.47 1014.18 1013.87 1013.36 1013.00 1012.57 1012.30 1011.83 1011.31 1010.95 1010.79 1010.68 1010.39 1009.99 1009.35 1008.68 1007.97 1007.50 1007.13 1006.79 1006.61 1005.99 1005.64 1005.69
1014.43 1014.81 1015.02 1015.12 1015.21 1015.22 1015.17 1015.22 1015.25 1015.17 1015.00 1014.78 1014.74 1014.65 1014.28 1013.85 1013.35 1013.19 1012.90 1012.50 1012.22 1011.76 1011.31 1010.79 1010.20 1009.77 1009.51 1008.79 1008.46 1007.96 1007.61 1007.24 1006.79 1006.44 1006.22 1005.88 1005.49 1005.29
1014.63 1014.97 1015.18 1015.33 1015.42 1015.46 1015.52 1015.56 1015.51 1015.34 1014.96 1014.75 1014.88 1014.72 1014.49 1013.99 1013.66 1013.39 1013.15 1012.81 1012.47 1012.07 1011.49 1010.75 1010.15 1009.87 1009.32 1008.72 1007.80 1007.34 1007.38 1006.99 1006.48 1006.09 1005.81 1005.60 1005.31 1004.95
1015.18 1015.27 1015.31 1015.35 1015.47 1015.49 1015.44 1015.52 1015.59 1015.50 1015.36 1015.30 1015.32 1015.22 1014.87 1014.56 1014.13 1013.77 1013.42 1013.19 1012.73 1012.12 1011.44 1010.81 1010.21 1009.64 1009.13 1008.54 1007.92 1007.25 1006.84 1006.77 1006.43 1005.99 1005.61 1005.35 1005.08 1004.87
1015.53 1015.66 1015.67 1015.71 1015.75 1015.77 1015.69 1015.77 1015.74 1015.64 1015.45 1015.53 1015.60 1015.42 1015.13 1015.02 1014.72 1014.00 1013.56 1013.18 1012.65 1012.17 1011.40 1010.64 1009.95 1009.28 1008.58 1007.95 1007.65 1007.26 1006.59 1006.33 1006.26 1006.05 1005.66 1005.44 1005.43 1005.24
1015.65 1015.76 1015.73 1015.85 1015.94 1015.78 1015.77 1015.81 1015.72 1015.88 1015.88 1015.80 1015.76 1015.46 1015.32 1015.22 1014.81 1014.24 1013.69 1013.14 1012.55 1012.08 1011.27 1010.20 1009.33 1008.85 1008.28 1007.74 1007.28 1007.15 1006.65 1006.24 1005.85 1005.64 1005.51 1005.42 1005.50 1005.39
1015.49 1015.69 1015.70 1015.82 1016.01 1015.87 1015.74 1015.82 1016.00 1016.16 1015.89 1015.83 1015.70 1015.53 1015.53 1015.41 1014.74 1014.18 1013.59 1013.01 1012.45 1011.83 1010.86 1009.88 1009.16 1008.69 1008.01 1007.48 1007.00 1006.71 1006.46 1006.14 1005.89 1005.63 1005.49 1005.47 1005.42 1005.22
Thickness
5629 5630 5632 5638 5638 5637 5636 5636 5635 5629 5630 5639 5635 5640 5638 5634 5632 5631 5631 5632 5628 5627 5622 5620 5617 5615 5612 5611 5607 5606 5606 5603 5603 5599 5594 5594 5591 5591
5617 5619 5623 5624 5626 5628 5627 5629 5628 5629 5626 5629 5627 5627 5633 5631 5629 5623 5620 5618 5621 5615 5620 5620 5611 5608 5605 5604 5604 5598 5599 5600 5600 5597 5593 5590 5588 5586
5601 5604 5610 5614 5615 5616 5618 5620 5625 5620 5617 5620 5621 5622 5623 5625 5622 5620 5615 5611 5609 5608 5607 5606 5609 5603 5602 5598 5596 5594 5593 5592 5590 5594 5589 5588 5587 5583
5587 5591 5601 5602 5607 5612 5604 5612 5615 5615 5611 5613 5619 5617 5615 5619 5617 5611 5607 5604 5605 5602 5601 5598 5598 5595 5594 5590 5587 5586 5586 5586 5586 5585 5584 5581 5582 5579
5574 5579 5587 5591 5597 5605 5607 5607 5608 5608 5606 5604 5612 5609 5609 5605 5600 5599 5598 5597 5594 5594 5590 5588 5583 5583 5582 5578 5575 5573 5577 5578 5583 5580 5579 5577 5576 5574
5566 5573 5578 5582 5593 5598 5599 5599 5602 5600 5598 5598 5602 5600 5598 5593 5585 5585 5586 5584 5584 5584 5582 5582 5579 5575 5575 5572 5569 5567 5567 5565 5569 5569 5569 5570 5570 5568
5560 5568 5572 5578 5584 5590 5587 5589 5590 5589 5587 5587 5590 5587 5581 5576 5577 5579 5577 5578 5575 5575 5573 5573 5571 5567 5566 5565 5565 5563 5561 5561 5563 5562 5559 5561 5562 5561
5548 5555 5558 5564 5569 5572 5572 5571 5574 5580 5579 5578 5576 5578 5575 5570 5566 5567 5569 5566 5564 5567 5565 5568 5562 5560 5559 5559 5558 5554 5552 5552 5553 5554 5553 5550 5550 5550
5528 5536 5545 5552 5555 5557 5558 5556 5558 5558 5559 5558 5556 5552 5552 5549 5550 5553 5556 5557 5556 5555 5553 5556 5554 5553 5552 5550 5548 5545 5543 5544 5545 5544 5544 5541 5539 5541
5517 5522 5534 5543 5542 5547 5545 5548 5542 5543 5542 5542 5539 5537 5538 5538 5539 5541 5539 5538 5538 5537 5535 5535 5537 5538 5537 5537 5536 5535 5535 5535 5533 5532 5532 5530 5527 5527
5514 5523 5526 5529 5531 5534 5535 5535 5533 5532 5533 5531 5530 5529 5527 5525 5527 5526 5521 5521 5521 5521 5516 5516 5519 5517 5518 5523 5523 5520 5517 5515 5515 5515 5514 5513 5512 5511
5512 5513 5519 5522 5523 5527 5527 5528 5527 5522 5520 5518 5514 5513 5513 5511 5508 5505 5502 5499 5498 5500 5498 5492 5494 5491 5499 5506 5505 5498 5494 5492 5490 5491 5491 5490 5488 5487
5515 5514 5515 5515 5516 5517 5516 5514 5512 5509 5506 5503 5500 5498 5495 5491 5488 5485 5481 5478 5475 5474 5473 5468 5469 5467 5465 5474 5481 5473 5466 5467 5462 5458 5459 5461 5459 5459
5508 5504 5503 5502 5502 5502 5500 5498 5496 5493 5490 5487 5484 5479 5476 5472 5468 5463 5459 5456 5452 5448 5446 5441 5442 5440 5439 5443 5450 5448 5439 5435 5429 5424 5424 5422 5425 5430
5496 5494 5492 5490 5489 5489 5487 5484 5481 5479 5475 5471 5466 5460 5456 5453 5450 5447 5443 5439 5433 5429 5425 5421 5418 5416 5411 5412 5416 5416 5408 5406 5397 5391 5389 5392 5396 5404
5483 5481 5479 5477 5476 5473 5469 5466 5463 5459 5453 5448 5447 5443 5439 5435 5431 5428 5425 5422 5417 5411 5402 5397 5393 5387 5386 5379 5375 5380 5370 5366 5368 5365 5366 5374 5380 5384
5471 5467 5463 5459 5456 5453 5450 5448 5444 5439 5434 5429 5426 5419 5416 5414 5409 5406 5404 5403 5396 5390 5384 5375 5369 5364 5356 5350 5347 5340 5341 5342 5344 5347 5348 5355 5363 5367
5456 5450 5445 5441 5437 5433 5430 5426 5422 5417 5415 5411 5406 5401 5398 5396 5394 5386 5382 5379 5372 5366 5360 5354 5349 5343 5330 5323 5317 5318 5317 5321 5325 5329 5333 5339 5348 5356
5441 5434 5429 5424 5420 5415 5410 5404 5399 5397 5394 5390 5385 5381 5378 5373 5369 5364 5357 5353 5346 5339 5333 5328 5321 5312 5309 5303 5298 5296 5298 5303 5310 5317 5322 5328 5335 5345
5420 5416 5411 5406 5400 5395 5390 5386 5382 5376 5372 5367 5361 5356 5350 5348 5344 5339 5335 5327 5322 5316 5310 5301 5293 5287 5281 5282 5285 5281 5285 5290 5296 5304 5312 5318 5326 5335
5401 5396 5391 5386 5382 5376 5373 5367 5361 5358 5352 5346 5340 5336 5332 5325 5319 5319 5312 5306 5301 5293 5287 5279 5271 5266 5266 5267 5271 5273 5275 5280 5285 5291 5299 5308 5311 5319
5382 5377 5373 5367 5361 5357 5353 5349 5344 5337 5331 5327 5320 5315 5309 5301 5297 5294 5290 5285 5278 5269 5262 5260 5258 5255 5256 5259 5265 5263 5264 5272 5279 5285 5291 5299 5302 5308
5361 5357 5352 5347 5341 5338 5335 5328 5321 5315 5312 5306 5300 5294 5285 5280 5278 5276 5272 5265 5257 5249 5248 5248 5247 5246 5249 5253 5259 5256 5260 5265 5270 5276 5282 5288 5295 5302